Location: USNO
(38.9242°N, 77.0663°W)
Time: 03:57:50
(UTC-05:00)

Daily predictions for brighter satellites

Satellite Brightness Start Highest point End
(mag) Time Altitude Azimuth Time Altitude Azimuth Time Altitude Azimuth
ATLAS 5 CENTAUR R/B 4.4 03:28:12 17° NE 03:28:12 17° NE 03:29:21 10° NE
Cosmos 1943 Rocket 3.9 03:33:34 27° NE 03:33:34 27° NE 03:36:06 10° NNE
ADEOS II 3.3 03:44:07 10° NNE 03:47:40 38° NE 03:47:40 38° NE
CZ-4B R/B 4.0 03:45:48 10° NNE 03:50:12 49° ENE 03:50:12 49° ENE
Okean-O 4.4 04:04:51 10° NE 04:08:43 29° E 04:10:31 22° SE
Lacrosse 5 3.2 04:16:33 31° N 04:16:33 31° N 04:19:36 10° NNE
ATLAS CENTAUR R/B 3.6 04:21:01 59° WSW 04:21:42 61° SW 04:37:52 10° SSE
CZ-4C R/B 1.9 04:27:47 87° SW 04:27:53 89° NW 04:33:46 10° NNE
Cosmos 1656 Rocket 3.6 04:30:10 67° SSW 04:31:00 89° ESE 04:36:43 10° NNE
Cosmos 1954 Rocket 4.0 04:30:13 14° NNW 04:34:54 83° ENE 04:40:13 10° SSE
GEOS 3 Rocket 3.6 04:32:15 10° SE 04:37:19 80° NE 04:39:30 36° NNW
Meteor 1-26 Rocket 4.1 04:36:09 47° SSW 04:37:51 82° W 04:43:28 10° N
Cosmos 2369 Rocket 4.0 04:41:22 16° NNW 04:41:22 16° NNW 04:43:18 10° N
CZ-4B DEB 4.4 04:34:57 10° N 04:39:46 51° NW 04:39:46 51° NW
Cosmos 1420 Rocket 4.0 04:38:54 36° S 04:41:00 76° ESE 04:46:11 10° NNE
Cosmos 2219 3.7 04:35:39 10° NNW 04:41:17 60° ENE 04:46:49 10° SE
Cosmos 1553 Rocket 4.2 04:35:56 10° S 04:42:03 69° E 04:48:19 10° NNE
USA 234 3.2 04:35:53 10° NE 04:42:26 90° SE 04:45:09 39° SW
Okean O Rocket 4.0 04:41:31 10° N 04:41:51 12° NNW 04:41:51 12° NNW
COSMO-SKYMED 1 4.3 04:45:38 10° SE 04:49:30 33° ENE 04:53:23 10° N
Meteor 1-31 Rocket 2.7 04:46:02 10° NNE 04:49:56 83° ESE 04:50:11 76° SSE
Meteor 2-10 Rocket 3.4 04:54:32 53° WSW 04:55:02 56° WNW 05:00:02 10° N
ATLAS 3B R/B 3.2 04:52:59 10° SSW 05:00:29 66° ESE 05:07:46 10° NE
Okean 1-7 2.9 05:00:19 53° SW 05:01:04 64° W 05:05:18 10° N
Cosmos 1023 Rocket 4.4 04:56:56 10° NNW 05:02:11 73° WSW 05:07:25 10° S
Cosmos 2221 Rocket 3.7 05:01:45 50° WSW 05:02:15 53° W 05:06:44 10° N
ERS-2 4.2 05:02:57 10° N 05:03:55 16° NNW 05:03:55 16° NNW
Cosmos 1452 Rocket 4.0 05:07:57 36° W 05:08:29 37° WNW 05:13:23 10° N
Thor Agena Rocket 3.4 05:03:32 10° S 05:08:45 78° WSW 05:13:56 10° NNW
ATLAS 5 CENTAUR R/B 3.7 05:09:45 15° NW 05:09:45 15° NW 05:12:49 10° N
Meteor 1-10 Rocket 4.4 05:06:53 10° S 05:12:24 72° E 05:18:03 10° NNE
Cosmos 1943 Rocket 3.6 05:15:06 19° NW 05:15:06 19° NW 05:18:45 10° N
Cosmos 1932 4.4 05:15:26 10° SSW 05:21:46 81° WNW 05:28:18 10° NNE
Cosmos 1741 Rocket 3.9 05:16:48 10° NNW 05:22:04 80° WSW 05:27:20 10° SSE
Feng Yun 1-1 Rocket 4.5 05:16:48 10° N 05:22:32 55° WNW 05:28:18 10° SSW
Radarsat Rocket 4.3 05:18:20 10° NNE 05:25:28 86° ESE 05:31:44 10° SSW
Cosmos 1782 Rocket 4.2 05:21:40 10° NNW 05:25:38 32° W 05:29:34 10° SSW
ADEOS II 3.4 05:24:48 10° NNW 05:28:33 20° WNW 05:28:37 20° WNW
Meteor 1-28 Rocket 3.6 05:26:00 10° SSE 05:29:40 65° ENE 05:33:24 10° N
Cosmos 1745 Rocket 3.9 05:27:33 10° NNW 05:33:36 60° W 05:39:34 10° S
Cosmos 1386 Rocket 4.4 05:27:33 10° N 05:33:38 80° W 05:39:46 10° S
Cosmos 1140 Rocket 4.0 05:28:58 10° NW 05:33:43 36° W 05:38:28 10° SSW
Cosmos 614 Rocket 4.2 05:31:01 10° NNW 05:35:53 45° WSW 05:40:45 10° S
SKYMED 2 3.5 05:33:06 10° S 05:37:25 71° WSW 05:41:46 10° NNW
CSL-04 Rocket 4.5 05:34:35 10° NNE 05:39:54 56° E 05:45:15 10° S
Cosmos 883 Rocket 4.5 05:35:28 10° S 05:41:47 82° W 05:48:10 10° N
Meteor 1-20 Rocket 4.4 05:38:31 10° NNW 05:43:55 47° W 05:49:12 10° SSW
Okean-O 3.7 05:41:30 10° NNW 05:45:04 24° WNW 05:48:07 12° WSW
Cosmos 2082 4.4 05:40:16 10° NNW 05:45:51 56° ENE 05:51:21 10° SE
Meteor 1-27 Rocket 3.9 05:41:06 10° S 05:46:53 85° E 05:52:48 10° N
Cosmos 1674 Rocket 3.5 05:43:41 10° S 05:48:04 85° W 05:52:33 10° N
Lacrosse 5 rocket 2.0 05:45:02 10° NNW 05:48:31 45° NE 05:52:00 10° ESE
USA 81 4.2 05:43:51 10° SSW 05:48:56 49° W 05:54:03 10° N
DELTA 2 R/B (2) 4.2 05:48:03 16° SW 05:49:44 40° SSE 05:51:36 10° E
Tiangong 1 1.9 05:48:10 17° WNW 05:50:01 36° N 05:52:45 10° ENE
Cosmos 1606 3.3 05:52:06 10° SW 05:55:39 35° WNW 05:59:16 10° N
Okean 2 Rocket 4.3 05:53:53 10° NW 05:57:04 20° W 06:00:15 10° SW
Lacrosse 5 3.9 05:56:30 10° NW 05:58:58 13° NNW 06:01:27 10° N
Cosmos 1602 3.7 05:56:06 10° N 06:00:04 77° W 06:04:00 10° S
Cosmos 2369 3.7 05:54:38 10° SSW 06:00:17 87° WNW 06:05:58 10° NNE
Cosmos 1607 4.2 05:56:27 10° SW 06:02:21 48° NW 06:08:19 10° NNE
PAYLOAD A 4.0 05:57:44 10° NNE 06:02:31 80° ESE 06:07:25 10° S
Cosmos 1782 4.0 06:01:37 10° SW 06:04:42 22° WNW 06:07:49 10° NNW
Delta 2 Rocket 4.1 06:00:43 11° W 06:05:18 61° S 06:10:38 10° ESE
Cosmos 2297 Rocket 2.5 06:01:54 10° NNW 06:07:35 74° ENE 06:13:12 10° SSE
Okean 1 Rocket 3.1 06:06:36 10° N 06:11:02 88° WSW 06:15:23 10° S
SMAP 4.1 06:08:31 10° NNE 06:13:03 51° E 06:17:34 10° S
CSL-04 Debris 4.2 06:08:26 10° NNE 06:13:52 84° WNW 06:19:14 10° SSW
Cosmos 2278 3.8 06:10:48 10° SW 06:16:22 61° WNW 06:21:59 10° NNE
ISS -0.5 06:14:00 10° S 06:16:31 20° SE 06:19:03 10° E
Gblst 52 Del rocket 4.5 06:11:13 10° WSW 06:16:56 66° NNW 06:23:25 10° NE
CZ-4C R/B 3.8 06:13:40 10° WNW 06:17:23 18° NW 06:21:25 10° N
Ariane Rocket 3.1 06:13:51 10° N 06:18:49 54° WNW 06:23:43 10° SSW
